DC4AT Weather Reports


Display with metric or nautical units.
time (UTC)temp
F
wind
direction
speed
MPH
gust
MPH
rain 1hr
in
rain 24hr
in
rain mn
in
humidity
%
barometer
mb
20260507122327 45 338 4.0 8.0 0.00 0.09 0.07 84 1015.5
20260507121327 45 339 4.0 8.0 0.00 0.09 0.07 84 1015.5
20260507120327 45 346 4.0 8.0 0.00 0.09 0.07 84 1015.4
20260507115327 45 333 5.0 10.0 0.00 0.09 0.07 84 1015.3
20260507114327 45 335 5.0 9.0 0.01 0.09 0.07 84 1015.3
20260507113327 45 298 6.0 10.0 0.01 0.10 0.07 84 1015.2
20260507112327 45 323 5.0 10.0 0.01 0.10 0.07 83 1015.0
20260507111327 45 327 5.0 8.0 0.01 0.10 0.07 83 1015.0
20260507110327 45 329 6.0 10.0 0.01 0.10 0.07 83 1015.0
20260507105327 45 0 4.0 9.0 0.01 0.10 0.07 83 1015.0
20260507104327 46 15 5.0 9.0 0.00 0.09 0.06 83 1015.0
20260507103327 46 317 3.0 9.0 0.00 0.09 0.06 82 1014.8
20260507102327 46 323 4.0 6.0 0.00 0.09 0.06 83 1014.7
20260507101327 46 327 4.0 13.0 0.00 0.09 0.06 83 1014.6
20260507100327 46 344 3.0 9.0 0.01 0.09 0.06 83 1014.4
20260507095327 46 336 4.0 10.0 0.01 0.09 0.06 83 1014.3
20260507094327 46 336 4.0 6.0 0.01 0.09 0.06 83 1014.1
20260507093327 46 337 4.0 9.0 0.01 0.09 0.06 83 1014.0
20260507092327 46 304 3.0 8.0 0.01 0.09 0.06 83 1014.1
20260507091327 46 331 4.0 7.0 0.01 0.09 0.06 83 1013.9
20260507090327 45 329 5.0 12.0 0.00 0.08 0.05 83 1013.7
20260507085327 46 328 4.0 8.0 0.00 0.08 0.05 83 1013.7
20260507084327 46 341 5.0 11.0 0.00 0.08 0.05 83 1013.6
20260507083327 46 32 5.0 11.0 0.00 0.08 0.05 82 1013.5
20260507082327 46 345 5.0 9.0 0.00 0.08 0.05 82 1013.3
20260507081327 46 294 5.0 8.0 0.00 0.08 0.05 82 1013.1
20260507080327 46 343 5.0 10.0 0.00 0.08 0.05 81 1013.0
20260507075327 45 336 6.0 10.0 0.01 0.08 0.05 81 1012.9
20260507074327 45 315 5.0 9.0 0.01 0.08 0.05 81 1012.6
20260507073327 45 289 3.0 8.0 0.01 0.09 0.05 81 1012.5
20260507072327 45 327 3.0 9.0 0.01 0.09 0.05 82 1012.3
20260507071327 46 299 3.0 9.0 0.01 0.09 0.05 81 1012.3
20260507070327 46 313 3.0 6.0 0.01 0.09 0.05 82 1012.2
20260507065327 46 320 3.0 8.0 0.00 0.08 0.04 82 1012.1
20260507064327 46 300 3.0 6.0 0.00 0.08 0.04 82 1011.9
20260507063327 46 336 2.0 6.0 0.01 0.09 0.04 82 1011.9
20260507062327 46 320 2.0 4.0 0.01 0.09 0.04 81 1011.6
20260507061328 45 5 3.0 5.0 0.01 0.09 0.04 82 1011.5
20260507060328 45 56 5.0 11.0 0.01 0.09 0.04 81 1011.3
20260507055328 45 65 4.0 12.0 0.01 0.09 0.04 81 1011.3
20260507054328 45 57 3.0 5.0 0.01 0.09 0.04 81 1011.1
20260507053328 45 336 5.0 13.0 0.00 0.08 0.03 81 1011.0
20260507052328 45 348 4.0 12.0 0.00 0.08 0.03 81 1010.8
20260507051328 46 350 3.0 8.0 0.00 0.08 0.03 81 1010.7
20260507050328 46 286 4.0 10.0 0.00 0.08 0.03 81 1010.5
20260507045328 46 264 3.0 5.0 0.00 0.08 0.03 81 1010.3
20260507044328 46 19 4.0 7.0 0.00 0.08 0.03 81 1010.2
20260507043328 46 341 5.0 9.0 0.00 0.09 0.03 81 1010.2
20260507042328 47 351 6.0 11.0 0.01 0.09 0.03 80 1010.1
20260507041328 47 316 3.0 9.0 0.01 0.09 0.03 80 1009.9
20260507040328 47 333 4.0 6.0 0.01 0.09 0.03 80 1009.8
20260507035328 47 331 4.0 10.0 0.01 0.09 0.03 80 1009.7
20260507034328 47 344 4.0 8.0 0.01 0.09 0.03 80 1009.7
20260507033328 47 331 4.0 10.0 0.01 0.13 0.03 80 1009.7
20260507032328 47 355 3.0 9.0 0.00 0.12 0.02 80 1009.6
20260507031328 47 332 4.0 8.0 0.00 0.12 0.02 80 1009.4
20260507030328 47 331 4.0 8.0 0.01 0.12 0.02 80 1009.5
20260507025328 47 328 4.0 10.0 0.01 0.12 0.02 80 1009.4
20260507024328 47 318 4.0 9.0 0.01 0.12 0.02 80 1009.3
20260507023328 47 278 3.0 10.0 0.01 0.17 0.02 80 1009.3
20260507022328 47 292 4.0 7.0 0.01 0.17 0.02 80 1009.3
20260507021328 47 5 3.0 7.0 0.01 0.17 0.02 80 1009.3
20260507020328 47 288 4.0 8.0 0.00 0.16 0.01 80 1009.1
20260507015328 47 302 4.0 9.0 0.00 0.16 0.01 80 1009.0
20260507014328 47 292 5.0 8.0 0.00 0.16 0.01 80 1009.0
20260507013328 47 290 5.0 8.0 0.00 0.22 0.01 80 1009.0
20260507012328 47 316 4.0 11.0 0.00 0.22 0.01 80 1009.0
20260507011328 47 300 4.0 11.0 0.00 0.22 0.01 80 1009.0
20260507010328 47 306 3.0 9.0 0.00 0.22 0.01 80 1008.9
20260507005328 47 286 4.0 8.0 0.00 0.22 0.01 80 1008.9
20260507004328 47 281 4.0 6.0 0.00 0.22 0.01 80 1008.8
20260507003328 47 273 3.0 8.0 0.00 0.27 0.01 80 1008.8
20260507002328 47 306 4.0 9.0 0.00 0.27 0.01 80 1008.8
20260507001328 47 283 4.0 10.0 0.00 0.27 0.01 80 1008.8
20260507000328 47 289 2.0 10.0 0.00 0.27 0.01 80 1008.7
20260506235329 47 304 3.0 8.0 0.00 0.27 0.01 80 1008.7
20260506234328 47 274 2.0 7.0 0.01 0.27 0.01 80 1008.8
20260506233328 48 295 2.0 4.0 0.01 0.32 0.01 80 1008.7
20260506232328 48 271 2.0 6.0 0.01 0.32 0.01 80 1008.5
20260506231328 48 284 2.0 6.0 0.01 0.32 0.01 80 1008.4
20260506230328 48 266 2.0 6.0 0.01 0.32 0.01 80 1008.5
20260506225328 48 275 2.0 6.0 0.01 0.32 0.01 80 1008.5
20260506224328 48 290 2.0 4.0 0.00 0.31 0.00 81 1008.5
20260506223329 48 290 2.0 4.0 0.00 0.37 0.00 81 1008.4
20260506222329 48 317 3.0 5.0 0.00 0.37 0.00 81 1008.3
20260506221329 48 287 3.0 7.0 0.00 0.37 0.38 81 1008.3
20260506220329 48 290 2.0 6.0 0.00 0.37 0.38 81 1008.4
20260506215329 48 296 2.0 4.0 0.00 0.37 0.38 81 1008.3
20260506214329 48 302 3.0 2.0 0.00 0.37 0.38 81 1008.3
20260506213329 48 285 2.0 6.0 0.00 0.38 0.38 81 1008.2
20260506212329 48 297 2.0 4.0 0.00 0.38 0.38 81 1008.2
20260506211329 48 304 2.0 5.0 0.00 0.38 0.38 81 1008.1
20260506210329 48 282 3.0 7.0 0.00 0.38 0.38 81 1008.0
20260506205329 48 295 3.0 4.0 0.01 0.38 0.38 81 1008.0
20260506204329 48 257 3.0 7.0 0.01 0.38 0.38 81 1008.1
20260506203329 48 281 1.0 5.0 0.01 0.38 0.38 81 1008.0
20260506202329 48 315 3.0 6.0 0.01 0.38 0.38 81 1007.9
20260506201329 49 346 2.0 5.0 0.01 0.38 0.38 80 1007.9
20260506200329 49 292 3.0 5.0 0.01 0.38 0.38 80 1007.9
20260506195329 49 328 3.0 7.0 0.00 0.37 0.37 80 1007.7
20260506194329 49 299 4.0 8.0 0.00 0.37 0.37 80 1007.7
20260506193329 49 305 4.0 9.0 0.00 0.37 0.37 80 1007.7
20260506192329 49 293 2.0 7.0 0.00 0.37 0.37 80 1007.6
20260506191329 49 340 3.0 9.0 0.00 0.37 0.37 81 1007.4
20260506190329 49 302 3.0 7.0 0.00 0.37 0.37 81 1007.1
20260506185329 50 288 2.0 7.0 0.00 0.37 0.37 80 1007.1
20260506184329 50 329 4.0 5.0 0.00 0.37 0.37 80 1007.0
20260506183329 50 266 3.0 4.0 0.00 0.37 0.37 80 1006.7
20260506182329 50 284 4.0 7.0 0.00 0.37 0.37 81 1006.7
20260506181329 50 286 5.0 9.0 0.00 0.37 0.37 81 1006.6
20260506180329 50 304 3.0 7.0 0.00 0.37 0.37 81 1006.6
20260506175329 50 319 5.0 10.0 0.00 0.37 0.37 81 1006.6
20260506174329 50 269 5.0 8.0 0.00 0.37 0.37 81 1006.5
20260506173329 50 308 3.0 7.0 0.00 0.37 0.37 81 1006.3
20260506172329 50 323 4.0 10.0 0.00 0.37 0.37 81 1006.3
20260506171329 51 280 4.0 8.0 0.00 0.37 0.37 81 1006.3
20260506170329 51 273 4.0 8.0 0.00 0.37 0.37 81 1006.3
20260506165329 51 305 5.0 11.0 0.00 0.37 0.37 82 1006.2
20260506164329 51 345 3.0 8.0 0.00 0.37 0.37 82 1006.2
20260506163329 51 325 4.0 10.0 0.00 0.37 0.37 82 1006.0
20260506162329 51 309 6.0 10.0 0.00 0.37 0.37 82 1006.1
20260506161329 52 296 5.0 8.0 0.00 0.37 0.37 82 1006.1
20260506160329 52 327 4.0 9.0 0.00 0.37 0.37 82 1006.1
20260506155329 52 348 5.0 10.0 0.00 0.37 0.37 82 1006.0
20260506154329 52 290 5.0 10.0 0.00 0.37 0.37 82 1005.9
20260506153329 52 317 4.0 10.0 0.00 0.37 0.37 82 1005.9
20260506152330 53 324 4.0 10.0 0.00 0.37 0.37 82 1006.0
20260506151330 53 306 4.0 8.0 0.00 0.37 0.37 82 1006.0
20260506150330 53 277 3.0 8.0 0.00 0.37 0.37 81 1006.0
20260506145330 53 256 3.0 8.0 0.00 0.37 0.37 81 1005.8
20260506144330 53 340 5.0 8.0 0.00 0.37 0.37 81 1005.8
20260506143330 53 296 4.0 8.0 0.01 0.37 0.37 81 1005.8
20260506142330 53 309 4.0 7.0 0.01 0.37 0.37 81 1005.8
20260506141330 53 332 3.0 9.0 0.01 0.37 0.37 81 1005.7
20260506140330 53 327 3.0 8.0 0.01 0.37 0.37 81 1005.9
20260506135330 53 300 4.0 7.0 0.01 0.37 0.37 81 1006.0
20260506134330 53 297 4.0 9.0 0.01 0.37 0.37 81 1005.9
20260506133330 53 302 5.0 9.0 0.00 0.36 0.36 81 1005.8
20260506132330 53 254 3.0 9.0 0.01 0.36 0.36 80 1005.8
20260506131330 53 336 4.0 8.0 0.01 0.36 0.36 80 1005.7
20260506130330 53 342 3.0 5.0 0.01 0.36 0.36 81 1005.7
20260506125330 52 335 3.0 5.0 0.01 0.36 0.36 81 1005.7
20260506124330 52 333 4.0 8.0 0.01 0.36 0.36 81 1005.7
20260506123330 53 317 3.0 7.0 0.01 0.36 0.36 81 1005.7